Главная страница
METAR-TAF:

METAR-TAF

Аэропорты :

Wings Field

Филадельфия / Blue Bell, Пенсильвания, США

широта: 40-08-15N, долгота: 075-15-54W, высота над уровнем моря: 92 м

Текущие метеонаблюдения

Эта сводка был подготовлена 8 часа и 26 минут назад, в 05:15 UTC
Ветер 3 Узел от восточный
Температура 19°C
Влажность 94%
Давление 1021 hPa
Видимость: 16.1 км
Сплошная облачность на высоте 4800 фута

METAR: KLOM 210515Z AUTO 09003KT 10SM OVC048 19/18 A3014 RMK AO1

Время: 09:41 (13:41 UTC)


TAF: отсутствует

Метеонаблюдения и прогнозы для более 4000 аэропортов (сводки METAR и TAF).

Имеющиеся станции представлены на карте желтыми и красными точками.

Чтобы увидеть название станции, наведите на нее мышь.

Затем щелкните, чтобы увидеть метеонаблюдения и метеопрогнозы.

Управление картой: чтобы увеличить масштаб, щелкните зеленые кнопки с черным крестиком; чтобы уменьшить масштаб, щелкните зеленую кнопку с тире; для просмотра соседних карт щелкайте зеленые стрелки.


METAR-TAF: